Regional Weather Roundup
Issued by NWS Sioux Falls, SD

Home | Current Version | Previous Version | Text Only | Print | Product List | Glossary On
Versions: 1 2 3 4 5 6 7 8 9 10 11 12 13 14 15 16 17 18 19 20 21 22 23 24 25 26 27 28 29 30 31 32 33 34 35 36 37 38 39 40 41 42 43 44 45 46 47 48 49 50
000
ASUS43 KFSD 262102
RWRFSD

WEATHER ROUNDUP FOR SE SOUTH DAKOTA/SW MINNESOTA/NW IOWA
NATIONAL WEATHER SERVICE SIOUX FALLS SD
400 PM CDT WED JUL 26 2017

NOTE: "FAIR" INDICATES FEW OR NO CLOUDS BELOW 12,000 FEET WITH NO
SIGNIFICANT WEATHER AND OR OBSTRUCTIONS TO VISIBILITY.


SDZ038>040-050-052>070-262200-
SOUTHEAST SOUTH DAKOTA

CITY           SKY/WX    TMP DP  RH WIND       PRES   REMARKS
BROOKINGS      FAIR      80  60  50 N13       30.07F
CHAMBERLAIN    SUNNY     88  58  36 E8        30.08R
HURON          SUNNY     84  58  40 NE13      30.07S
MADISON        FAIR      77  63  61 NE10G16   30.08S
MITCHELL       SUNNY     84  61  45 NE13      30.06S
SIOUX FALLS    FAIR      84  67  56 N12G22    30.04S
WINNER         FAIR      91  58  32 NE18G25   30.08S
YANKTON        PTSUNNY   82  69  64 NE13      30.02S
$$

MNZ071-072-080-081-089-090-097-098-262200-
SOUTHWEST MINNESOTA

CITY           SKY/WX    TMP DP  RH WIND       PRES   REMARKS
FAIRMONT       FAIR      81  71  71 VRB5      30.01S
JACKSON        PTSUNNY   77  68  73 CALM      30.03S
MARSHALL       FAIR      79  60  52 N9        30.05S
MONTEVIDEO     FAIR      84  64  51 NE9       30.05S
PIPESTONE      FAIR      81  59  47 NE10      30.07S
REDWOOD FALLS  FAIR      82  59  45 NW10      30.02F
TRACY          FAIR      80  65  59 N9        30.05S
WINDOM         FAIR      81  64  57 N12       30.03S
WORTHINGTON    PTSUNNY   81  65  58 N12       30.04F
$$

IAZ001>003-012>014-020>022-031-032-NEZ013-014-SDZ071-262200-
NORTHWEST IOWA

CITY           SKY/WX    TMP DP  RH WIND       PRES   REMARKS
CHEROKEE       PTSUNNY   80  72  75 E7        30.00F
DENISON        CLOUDY    75  72  88 CALM      30.01F
ESTHERVILLE    PTSUNNY   81  70  69 VRB5      30.00F
ORANGE CITY    FAIR      82  70  65 E7        30.01S
SHELDON        CLOUDY    81  70  69 NE8       30.01R
SIOUX CITY     PTSUNNY   84  72  67 E7        29.99F
SPENCER        CLOUDY    80  69  69 VRB3      30.01S
STORM LAKE       N/A     77  70  78 E6        30.02R
$$

ABBREVIATIONS USED IN REMARKS
   TC - TEMPERATURE IN CELSIUS
  WCI - WIND CHILL INDEX
   HX - HEAT INDEX
  VSB - VISIBILITY





USA.gov is the U.S. government's official web portal to all federal, state and local government web resources and services.